Location: Unspecified
(25.6470°N, 106.8560°E)
Time: 07:01:25
(UTC+00:00)

Daily predictions for brighter satellites

Satellite Brightness Start Highest point End
(mag) Time Altitude Azimuth Time Altitude Azimuth Time Altitude Azimuth
Cosmos 2058 Rocket 3.4 12:00:19 10° SSW 12:04:37 66° W 12:08:56 10° N
Cosmos 2228 3.3 12:02:09 10° SSW 12:06:30 69° W 12:10:51 10° N
Cosmos 858 Rocket 4.4 12:03:32 10° N 12:08:46 70° ENE 12:12:44 17° SSE
IUS-17 SRM-1 2.2 12:06:39 10° W 12:10:08 53° N 12:10:11 53° N
Cosmos 841 Rocket 3.8 12:05:16 10° SSW 12:10:22 66° WNW 12:15:28 10° N
Cosmos 2298 Rocket 4.0 12:07:26 10° N 12:12:44 65° ENE 12:15:48 25° SSE
BREEZE-M DEB 4.4 12:10:06 10° NNW 12:14:18 21° NNE 12:14:33 21° NNE
H-2A R/B 2.9 12:11:34 10° S 12:15:14 67° W 12:18:55 10° NNW
Cosmos 1953 Rocket 3.9 12:11:21 10° NNW 12:15:38 65° W 12:19:52 10° S
EXPRESS MD2 3.5 12:12:50 10° NW 12:16:09 89° NE 12:18:24 35° SE
Tiangong 2 1.2 12:14:16 10° NW 12:17:13 74° NW 12:17:13 74° NW
Cosmos 2263 4.4 12:12:50 10° NNW 12:18:26 72° WSW 12:24:04 10° S
Cosmos 1937 Rocket 3.4 12:13:42 10° N 12:18:59 74° ENE 12:21:41 29° SSE
Aurora 2 Rocket 4.4 12:11:49 10° W 12:19:56 74° SSW 12:25:22 32° ESE
Milstar 3 Cent rocket 1.8 12:14:55 10° WSW 12:20:07 75° SSE 12:21:17 50° E
ATLAS CENTAUR R/B 3.7 12:14:59 10° NNW 12:23:11 29° NNE 12:23:59 28° NE
GPS 2-04 Rocket1 2.7 12:19:16 10° WNW 12:23:35 78° NNE 12:23:55 71° ENE
Cosmos 1766 3.2 12:21:10 10° S 12:25:08 83° W 12:29:04 10° N
Cosmos 909 Rocket 4.2 12:18:22 10° NNW 12:26:21 75° ENE 12:29:37 33° SE
Cosmos 2184 Rocket 4.3 12:27:23 10° SSW 12:33:35 68° W 12:39:53 10° N
SWIFT 3.5 12:30:08 10° WSW 12:33:35 32° SSW 12:33:35 32° SSW
BREEZE-M (TANK) 4.0 12:29:09 10° NW 12:36:38 33° NNE 12:36:38 33° NNE
Meteor 1-24 Rocket 3.6 12:32:39 10° N 12:38:35 74° E 12:39:45 57° SE
Cosmos 540 Rocket 3.6 12:35:41 10° SSW 12:40:45 71° WNW 12:45:51 10° N
Delta 2 Rocket 4.2 12:33:39 10° WSW 12:41:59 84° S 12:43:45 56° E
Cosmos 1610 Rocket 4.5 12:36:17 10° S 12:42:36 85° W 12:49:00 10° N
Spot 2 Rocket 3.8 12:54:20 58° NNW 12:54:20 58° NNW 12:58:21 10° NNW
Delta 168 4.5 12:45:16 10° W 12:56:19 86° S 12:57:56 63° E
Cosmos 1943 Rocket 3.9 13:00:59 10° NW 13:05:46 29° WSW 13:09:17 16° SSW
Resurs 01 Rocket 3.6 13:17:24 27° WNW 13:17:24 27° WNW 13:19:55 10° NNW
NOSS 3-1 (A) 4.3 13:14:26 10° NNW 13:21:13 60° NNE 13:21:13 60° NNE
NOSS 3-1 (C) 4.1 13:24:56 10° NNW 13:32:30 77° WNW 13:32:30 77° WNW
Cosmos 2263 Rocket 4.3 19:37:22 22° ENE 19:37:22 22° ENE 19:40:11 10° NE
CZ-3 R/B 4.0 19:31:03 56° SSW 19:36:11 64° SSE 19:46:40 10° E
ADEOS II 4.3 19:41:46 10° NE 19:43:56 22° NE 19:43:56 22° NE
Okean O Rocket 4.0 20:02:08 10° NE 20:04:26 20° ENE 20:04:26 20° ENE
Palapa 6 Rocket 4.2 20:24:31 55° SE 20:24:31 55° SE 20:29:59 10° E
Delta 2 Rocket 4.4 20:32:21 59° SE 20:32:21 59° SE 20:37:35 10° ENE
Meteor 1-18 Rocket 4.4 20:33:15 58° SSE 20:34:24 75° E 20:40:19 10° N
Cosmos 1741 Rocket 4.3 20:36:26 58° NNE 20:36:26 58° NNE 20:40:38 10° NNE
Atlas Centaur 2 2.1 20:47:47 65° NW 20:48:09 67° NNW 20:53:04 10° ENE
SEDSat Delta rocket 3.9 20:47:44 51° NW 20:48:54 61° NNE 20:54:15 10° E
Cosmos 1603 3.6 20:44:09 10° NNW 20:49:49 88° ENE 20:55:30 10° SSE
CZ-4B DEB 4.3 20:45:25 10° NNE 20:50:53 76° ESE 20:54:16 24° S
Cosmos 1975 Rocket 4.2 20:56:39 32° NNW 20:56:39 32° NNW 20:59:10 10° N
Cosmos 1850 Rocket 4.4 20:58:27 46° NW 20:58:27 46° NW 21:02:55 10° N
GPS 2-14 Rocket1 3.9 20:59:07 30° SSE 20:59:07 30° SSE 21:01:51 10° ESE
Skynet4D Del rocket 3.6 20:59:14 54° SW 21:00:27 72° SSE 21:05:52 10° E
Cosmos 2266 Rocket 3.9 20:54:45 10° N 21:01:11 87° W 21:07:34 10° S
GPS 2-12 Rocket1 4.0 21:02:47 33° S 21:02:47 33° S 21:06:32 10° SE
Meteor PRIRODA 4.0 21:00:36 10° NNE 21:04:14 61° E 21:05:45 32° S
ATLAS 3B R/B 2.9 21:01:38 16° SSW 21:07:52 82° ESE 21:15:11 10° NNE
RUBIN 8/PSLV 4.4 21:05:37 10° N 21:10:01 74° WNW 21:11:32 40° SSW
H-2A R/B 3.6 20:51:54 22° W 21:10:51 82° N 21:15:47 10° E
Cosmos 1844 Rocket 4.2 21:06:56 10° SSE 21:12:02 36° ESE 21:17:10 10° NE
PAYLOAD B 4.2 21:07:14 10° N 21:12:39 60° WNW 21:15:51 25° SW
Cosmos 1943 3.4 21:09:44 10° NNW 21:15:25 72° ENE 21:21:03 10° SSE
Cosmos 2263 Rocket 3.0 21:19:07 30° WNW 21:19:17 30° WNW 21:24:14 10° N
Cosmos 1536 Rocket 3.8 21:15:50 10° S 21:20:06 67° E 21:24:24 10° NNE
Cosmos 1975 2.8 21:16:43 10° N 21:20:49 87° E 21:24:54 10° S
Cosmos 1500 3.3 21:20:01 10° NNW 21:23:38 47° W 21:27:15 10° SSW
IRS-1C Rocket 4.1 21:19:21 10° N 21:24:31 59° WNW 21:29:41 10° SSW
ADEOS II 3.5 21:22:03 10° NNW 21:24:52 20° NW 21:24:52 20° NW
Cosmos 1570 Rocket 4.2 21:23:46 10° NNW 21:29:04 78° ENE 21:34:23 10° SSE
ASC 2 Rocket 2.8 21:30:57 33° WSW 21:32:38 71° S 21:36:50 10° E
Cosmos 2208 Rocket 4.2 21:27:49 10° N 21:33:05 75° ENE 21:38:15 10° SSE
ISS -3.5 21:32:28 16° NNW 21:34:55 65° NE 21:38:10 10° SE
Okean O Rocket 2.9 21:38:28 10° NNW 21:41:40 21° WNW 21:41:52 20° WNW
SJ-6F 4.4 21:38:37 10° N 21:42:42 62° WNW 21:46:45 10° SSW
Meteor 1-19 Rocket 4.3 21:37:04 10° SSW 21:42:53 63° W 21:48:41 10° N
Meteor 1-31 Rocket 3.2 21:42:09 10° N 21:45:45 37° WNW 21:49:18 10° SW
CZ-3A R/B 2.7 21:43:41 22° W 21:46:00 86° S 21:58:55 10° E
Cosmos 1844 4.3 21:42:26 10° S 21:47:53 60° ESE 21:53:24 10° NNE
Meteor 2-4 Rocket 3.6 21:42:40 10° S 21:48:06 84° W 21:53:44 10° N
NOSS 3-2 (A) 3.7 21:44:41 10° SSW 21:50:25 67° ESE 21:56:32 10° NNE
CZ-4B R/B 4.5 21:47:47 10° N 21:51:23 35° WNW 21:55:08 10° SW
Landsat 4 3.8 21:48:21 10° S 21:52:03 52° W 21:55:47 10° NNW
CZ-4B R/B 4.2 21:53:10 10° NNW 21:57:18 24° WNW 22:01:28 10° WSW
USA 116 3.2 21:56:39 10° S 22:00:13 73° WSW 22:03:29 10° NNW
Cosmos 1025 Rocket 3.7 21:56:30 10° S 22:00:40 59° E 22:04:51 10° NNE
Cosmos 1666 2.7 22:01:44 10° NNW 22:05:25 55° W 22:09:08 10° S
COSMO-SKYMED 1 3.5 22:02:07 10° SSE 22:06:20 54° ENE 22:10:34 10° N
Cosmos 1553 Rocket 4.1 22:00:50 10° SSW 22:06:52 54° W 22:12:50 10° N
BREEZE-M DEB 4.3 22:04:55 10° SW 22:07:28 67° SE 22:11:02 10° NE
OAO 3 Rocket 4.3 22:04:09 12° W 22:07:39 26° SW 22:11:32 10° SSE
GOES 2 Rocket 3.2 22:04:47 10° WNW 22:08:59 72° N 22:13:56 10° E
Cosmos 1743 3.3 22:05:30 10° NNW 22:09:05 35° W 22:12:39 10° SSW
Cosmos 1745 Rocket 4.3 22:03:09 10° N 22:09:31 75° E 22:15:48 10° S
PAYLOAD A 4.1 22:05:33 10° NNE 22:10:21 74° ESE 22:15:02 10° S
Palapa 6 Rocket 4.4 22:06:25 10° W 22:12:23 57° S 22:19:39 10° ESE
USA 238 DEB 4.2 22:07:05 10° SW 22:13:28 39° WNW 22:19:55 10° N
USA 238 4.2 22:07:11 10° SW 22:13:34 39° WNW 22:20:02 10° N
Cosmos 2084 4.3 22:11:36 10° WNW 22:14:50 25° WSW 22:18:12 10° S
Intelsat 5-2 Rocket 3.3 22:12:41 10° W 22:15:40 66° S 22:22:57 10° E
ASTRO E2 2.7 22:17:06 10° WSW 22:21:07 80° NNW 22:25:09 10° ENE
